TimeCDT,TemperatureF,Dew PointF,Humidity,Sea Level PressureIn,VisibilityMPH,Wind Direction,Wind SpeedMPH,Gust SpeedMPH,PrecipitationIn,Events,Conditions,WindDirDegrees,DateUTC
12:53 AM,68.0,44.1,42,29.64,10.0,WSW,9.2,-,N/A,,Clear,250,2013-03-16 05:53:00
1:53 AM,66.9,44.1,44,29.64,10.0,WSW,6.9,-,N/A,,Clear,240,2013-03-16 06:53:00
2:53 AM,61.0,44.1,54,29.66,10.0,Calm,Calm,-,N/A,,Clear,0,2013-03-16 07:53:00
3:53 AM,64.0,46.9,54,29.67,10.0,WNW,9.2,-,N/A,,Clear,290,2013-03-16 08:53:00
4:53 AM,59.0,46.0,62,29.70,10.0,NW,8.1,-,N/A,,Clear,310,2013-03-16 09:53:00
5:53 AM,55.0,44.1,67,29.75,10.0,NNW,10.4,-,N/A,,Clear,330,2013-03-16 10:53:00
6:53 AM,51.1,41.0,68,29.80,9.0,North,6.9,16.1,N/A,,Clear,350,2013-03-16 11:53:00
7:53 AM,46.9,37.9,71,29.87,6.0,North,15.0,21.9,N/A,,Haze,360,2013-03-16 12:53:00
8:14 AM,46.4,37.4,71,29.92,5.0,North,11.5,-,N/A,,Haze,360,2013-03-16 13:14:00
8:53 AM,45.0,36.0,71,29.90,4.0,North,15.0,-,N/A,,Haze,360,2013-03-16 13:53:00
9:53 AM,43.0,36.0,76,29.94,4.0,NNE,8.1,-,N/A,,Haze,20,2013-03-16 14:53:00
10:53 AM,43.0,35.1,74,29.95,5.0,NNE,9.2,-,N/A,,Haze,30,2013-03-16 15:53:00
11:53 AM,43.0,35.1,74,29.97,5.0,North,9.2,-,N/A,,Haze,10,2013-03-16 16:53:00
12:31 PM,42.8,33.8,70,30.02,7.0,North,5.8,-,N/A,,Overcast,350,2013-03-16 17:31:00
12:53 PM,44.1,34.0,68,30.00,8.0,North,9.2,-,N/A,,Overcast,360,2013-03-16 17:53:00
1:53 PM,45.0,34.0,65,29.99,8.0,North,11.5,-,N/A,,Overcast,10,2013-03-16 18:53:00
2:53 PM,45.0,34.0,65,29.97,7.0,North,4.6,-,N/A,,Overcast,10,2013-03-16 19:53:00
3:53 PM,45.0,33.1,63,29.96,7.0,NE,6.9,-,N/A,,Overcast,50,2013-03-16 20:53:00
4:53 PM,45.0,33.1,63,29.98,7.0,NE,8.1,-,N/A,,Overcast,50,2013-03-16 21:53:00
5:53 PM,44.1,33.1,65,29.98,8.0,NNE,9.2,-,N/A,,Overcast,30,2013-03-16 22:53:00
6:53 PM,42.1,35.1,76,30.00,7.0,ENE,6.9,-,0.00,Rain,Light Rain,60,2013-03-16 23:53:00
7:27 PM,42.8,35.6,76,30.02,8.0,NE,5.8,-,N/A,,Overcast,40,2013-03-17 00:27:00
7:53 PM,42.1,35.1,76,30.00,8.0,NNE,5.8,-,N/A,,Overcast,30,2013-03-17 00:53:00
8:53 PM,41.0,35.1,79,30.02,7.0,ENE,4.6,-,0.00,,Overcast,60,2013-03-17 01:53:00
9:53 PM,41.0,34.0,76,30.01,10.0,ENE,6.9,-,0.00,,Overcast,70,2013-03-17 02:53:00
10:13 PM,39.2,33.8,81,30.05,10.0,NE,5.8,-,N/A,,Overcast,50,2013-03-17 03:13:00
10:53 PM,39.9,33.1,77,30.04,10.0,Variable,5.8,-,N/A,,Overcast,0,2013-03-17 03:53:00
11:46 PM,39.2,32.0,75,30.06,10.0,NNE,5.8,-,0.00,Rain,Light Rain,30,2013-03-17 04:46:00
11:53 PM,39.0,32.0,76,30.04,10.0,NNE,8.1,-,0.00,,Overcast,20,2013-03-17 04:53:00